| time (UTC) | temp F | wind direction | speed MPH | gust MPH | rain 1hr in | rain 24hr in | rain mn in | humidity % | barometer mb |
| 20260505011405 | 57 | 242 | 0.0 | 1.0 | 0.00 | 0.00 | 0.00 | 64 | 1015.6 |
| 20260505010903 | 58 | 246 | 0.0 | 1.0 | 0.00 | 0.00 | 0.00 | 63 | 1015.6 |
| 20260505010402 | 58 | 308 | 0.0 | 0.0 | 0.00 | 0.00 | 0.00 | 63 | 1015.6 |
| 20260505005902 | 58 | 307 | 0.0 | 1.0 | 0.00 | 0.00 | 0.00 | 62 | 1015.6 |
| 20260505005402 | 58 | 303 | 0.0 | 1.0 | 0.00 | 0.00 | 0.00 | 62 | 1015.8 |
| 20260505004403 | 58 | 250 | 0.0 | 1.0 | 0.00 | 0.00 | 0.00 | 63 | 1015.9 |
| 20260505003902 | 58 | 248 | 0.0 | 1.0 | 0.00 | 0.00 | 0.00 | 62 | 1015.9 |
| 20260505003402 | 58 | 169 | 0.0 | 0.0 | 0.00 | 0.00 | 0.00 | 62 | 1016.0 |
| 20260505002903 | 58 | 218 | 0.0 | 0.0 | 0.00 | 0.00 | 0.00 | 61 | 1016.3 |
| 20260505002403 | 58 | 223 | 0.0 | 0.0 | 0.00 | 0.00 | 0.00 | 62 | 1016.3 |
| 20260505001903 | 57 | 246 | 0.0 | 0.0 | 0.00 | 0.00 | 0.00 | 61 | 1016.3 |
| 20260505001404 | 57 | 45 | 0.0 | 0.0 | 0.00 | 0.00 | 0.00 | 63 | 1016.3 |
| 20260505000903 | 58 | 48 | 0.0 | 0.0 | 0.00 | 0.00 | 0.00 | 63 | 1016.6 |
| 20260505000402 | 58 | 47 | 0.0 | 0.0 | 0.00 | 0.00 | 0.00 | 61 | 1016.3 |
| 20260504235903 | 58 | 48 | 0.0 | 1.0 | 0.00 | 0.00 | 0.00 | 60 | 1016.3 |
| 20260504235403 | 58 | 64 | 0.0 | 1.0 | 0.00 | 0.00 | 0.00 | 62 | 1016.5 |
| 20260504234402 | 58 | 49 | 0.0 | 1.0 | 0.00 | 0.00 | 0.00 | 62 | 1016.6 |
| 20260504233903 | 58 | 50 | 0.0 | 1.0 | 0.00 | 0.00 | 0.00 | 61 | 1016.4 |
| 20260504233403 | 58 | 20 | 0.0 | 1.0 | 0.00 | 0.00 | 0.00 | 61 | 1016.6 |
| 20260504232903 | 58 | 64 | 0.0 | 1.0 | 0.00 | 0.00 | 0.00 | 61 | 1016.6 |
| 20260504232405 | 58 | 264 | 0.0 | 0.0 | 0.00 | 0.00 | 0.00 | 61 | 1016.9 |
| 20260504231403 | 58 | 38 | 0.0 | 1.0 | 0.00 | 0.00 | 0.00 | 60 | 1016.6 |
| 20260504230902 | 58 | 45 | 0.0 | 1.0 | 0.00 | 0.00 | 0.00 | 61 | 1016.8 |
| 20260504230402 | 59 | 47 | 0.0 | 1.0 | 0.00 | 0.00 | 0.00 | 61 | 1016.9 |
| 20260504225902 | 59 | 268 | 0.0 | 0.0 | 0.00 | 0.00 | 0.00 | 60 | 1016.6 |
| 20260504225403 | 59 | 338 | 0.0 | 1.0 | 0.00 | 0.00 | 0.00 | 60 | 1016.9 |
| 20260504224402 | 59 | 268 | 0.0 | 1.0 | 0.00 | 0.00 | 0.00 | 60 | 1016.9 |
| 20260504223903 | 59 | 71 | 0.0 | 1.0 | 0.00 | 0.00 | 0.00 | 60 | 1016.9 |
| 20260504222903 | 60 | 74 | 0.0 | 0.0 | 0.00 | 0.00 | 0.00 | 59 | 1016.9 |
| 20260504222403 | 60 | 83 | 0.0 | 0.0 | 0.00 | 0.00 | 0.00 | 58 | 1016.9 |
| 20260504221903 | 60 | 169 | 0.0 | 0.0 | 0.00 | 0.00 | 0.00 | 58 | 1016.9 |
| 20260504221403 | 60 | 250 | 0.0 | 0.0 | 0.00 | 0.00 | 0.00 | 59 | 1016.9 |
| 20260504220905 | 60 | 251 | 0.0 | 0.0 | 0.00 | 0.00 | 0.00 | 59 | 1016.9 |
| 20260504220403 | 60 | 65 | 0.0 | 1.0 | 0.00 | 0.00 | 0.00 | 58 | 1017.0 |
| 20260504215903 | 60 | 66 | 0.0 | 1.0 | 0.00 | 0.00 | 0.00 | 58 | 1016.9 |
| 20260504215402 | 60 | 67 | 0.0 | 1.0 | 0.00 | 0.00 | 0.00 | 58 | 1016.9 |
| 20260504214902 | 61 | 38 | 0.0 | 0.0 | 0.00 | 0.00 | 0.00 | 57 | 1016.9 |
| 20260504214403 | 61 | 44 | 0.0 | 1.0 | 0.00 | 0.00 | 0.00 | 57 | 1016.9 |
| 20260504213903 | 61 | 61 | 0.0 | 1.0 | 0.00 | 0.00 | 0.00 | 57 | 1016.9 |
| 20260504213403 | 61 | 73 | 0.0 | 1.0 | 0.00 | 0.00 | 0.00 | 57 | 1017.2 |
| 20260504212903 | 61 | 196 | 0.0 | 0.0 | 0.00 | 0.00 | 0.00 | 57 | 1017.2 |
| 20260504212404 | 61 | 184 | 0.0 | 1.0 | 0.00 | 0.00 | 0.00 | 56 | 1017.3 |
| 20260504211902 | 61 | 253 | 0.0 | 1.0 | 0.00 | 0.00 | 0.00 | 57 | 1017.3 |
| 20260504211404 | 62 | 257 | 0.0 | 1.0 | 0.00 | 0.00 | 0.00 | 56 | 1017.3 |
| 20260504210903 | 61 | 71 | 0.0 | 1.0 | 0.00 | 0.00 | 0.00 | 56 | 1017.3 |
| 20260504210404 | 62 | 75 | 0.0 | 1.0 | 0.00 | 0.00 | 0.00 | 56 | 1017.3 |
| 20260504205402 | 62 | 275 | 0.0 | 0.0 | 0.00 | 0.00 | 0.00 | 56 | 1017.0 |
| 20260504204903 | 62 | 276 | 0.0 | 0.0 | 0.00 | 0.00 | 0.00 | 55 | 1017.2 |
| 20260504204403 | 62 | 292 | 0.0 | 0.0 | 0.00 | 0.00 | 0.00 | 55 | 1017.3 |
| 20260504203904 | 63 | 316 | 0.0 | 1.0 | 0.00 | 0.00 | 0.00 | 55 | 1017.3 |
| 20260504203403 | 63 | 57 | 0.0 | 1.0 | 0.00 | 0.00 | 0.00 | 54 | 1017.1 |
| 20260504202903 | 63 | 121 | 0.0 | 0.0 | 0.00 | 0.00 | 0.00 | 53 | 1017.3 |
| 20260504202403 | 63 | 176 | 0.0 | 0.0 | 0.00 | 0.00 | 0.00 | 53 | 1017.2 |
| 20260504201904 | 64 | 174 | 0.0 | 0.0 | 0.00 | 0.00 | 0.00 | 53 | 1017.2 |
| 20260504201406 | 64 | 185 | 0.0 | 1.0 | 0.00 | 0.00 | 0.00 | 53 | 1016.9 |
| 20260504200903 | 64 | 113 | 0.0 | 1.0 | 0.00 | 0.00 | 0.00 | 53 | 1016.9 |
| 20260504200404 | 64 | 68 | 1.0 | 1.0 | 0.00 | 0.00 | 0.00 | 52 | 1016.9 |
| 20260504195903 | 64 | 195 | 0.0 | 1.0 | 0.00 | 0.00 | 0.00 | 52 | 1016.8 |
| 20260504195402 | 64 | 240 | 0.0 | 1.0 | 0.00 | 0.00 | 0.00 | 52 | 1016.9 |
| 20260504194904 | 64 | 300 | 0.0 | 1.0 | 0.00 | 0.00 | 0.00 | 52 | 1016.9 |
| 20260504194404 | 65 | 76 | 0.0 | 0.0 | 0.00 | 0.00 | 0.00 | 51 | 1016.6 |
| 20260504193905 | 65 | 76 | 0.0 | 0.0 | 0.00 | 0.00 | 0.00 | 51 | 1016.6 |
| 20260504192903 | 65 | 144 | 0.0 | 1.0 | 0.00 | 0.00 | 0.00 | 50 | 1016.6 |
| 20260504192404 | 66 | 174 | 0.0 | 2.0 | 0.00 | 0.00 | 0.00 | 50 | 1016.6 |
| 20260504191903 | 66 | 52 | 0.0 | 2.0 | 0.00 | 0.00 | 0.00 | 50 | 1016.5 |
| 20260504191404 | 66 | 72 | 0.0 | 1.0 | 0.00 | 0.00 | 0.00 | 49 | 1016.6 |
| 20260504190903 | 66 | 174 | 0.0 | 1.0 | 0.00 | 0.00 | 0.00 | 49 | 1016.6 |
| 20260504185903 | 67 | 40 | 0.0 | 1.0 | 0.00 | 0.00 | 0.00 | 49 | 1016.3 |
| 20260504184903 | 68 | 193 | 0.0 | 0.0 | 0.00 | 0.00 | 0.00 | 47 | 1016.1 |
| 20260504184403 | 69 | 96 | 0.0 | 1.0 | 0.00 | 0.00 | 0.00 | 46 | 1016.3 |
| 20260504183404 | 70 | 56 | 1.0 | 3.0 | 0.00 | 0.00 | 0.00 | 46 | 1016.3 |
| 20260504182903 | 71 | 73 | 1.0 | 5.0 | 0.00 | 0.00 | 0.00 | 42 | 1015.9 |
| 20260504182403 | 71 | 225 | 2.0 | 7.0 | 0.00 | 0.00 | 0.00 | 41 | 1015.9 |
| 20260504181403 | 71 | 243 | 2.0 | 7.0 | 0.00 | 0.00 | 0.00 | 41 | 1015.9 |
| 20260504180903 | 71 | 209 | 1.0 | 8.0 | 0.00 | 0.00 | 0.00 | 42 | 1015.9 |
| 20260504180404 | 71 | 250 | 2.0 | 8.0 | 0.00 | 0.00 | 0.00 | 40 | 1015.9 |
| 20260504175903 | 71 | 234 | 2.0 | 8.0 | 0.00 | 0.00 | 0.00 | 40 | 1015.9 |
| 20260504175403 | 71 | 217 | 1.0 | 2.0 | 0.00 | 0.00 | 0.00 | 40 | 1015.9 |
| 20260504174903 | 72 | 226 | 1.0 | 2.0 | 0.00 | 0.00 | 0.00 | 40 | 1015.9 |
| 20260504174403 | 72 | 226 | 0.0 | 2.0 | 0.00 | 0.00 | 0.00 | 40 | 1015.6 |
| 20260504173902 | 73 | 99 | 0.0 | 3.0 | 0.00 | 0.00 | 0.00 | 39 | 1015.6 |
| 20260504172903 | 73 | 233 | 2.0 | 3.0 | 0.00 | 0.00 | 0.00 | 38 | 1015.5 |
| 20260504172403 | 73 | 261 | 2.0 | 3.0 | 0.00 | 0.00 | 0.00 | 38 | 1015.5 |
| 20260504171403 | 74 | 247 | 1.0 | 3.0 | 0.00 | 0.00 | 0.00 | 39 | 1015.6 |
| 20260504170903 | 74 | 258 | 1.0 | 3.0 | 0.00 | 0.00 | 0.00 | 38 | 1015.2 |
| 20260504170402 | 74 | 239 | 0.0 | 5.0 | 0.00 | 0.00 | 0.00 | 39 | 1015.4 |
| 20260504160403 | 76 | 229 | 2.0 | 7.0 | 0.00 | 0.00 | 0.00 | 38 | 1015.2 |
| 20260504150903 | 77 | 233 | 2.0 | 3.0 | 0.00 | 0.00 | 0.00 | 37 | 1015.3 |
| 20260504150404 | 77 | 245 | 2.0 | 5.0 | 0.00 | 0.00 | 0.00 | 37 | 1015.2 |
| 20260504140903 | 79 | 267 | 1.0 | 7.0 | 0.00 | 0.00 | 0.00 | 33 | 1015.7 |
| 20260504140403 | 79 | 213 | 3.0 | 7.0 | 0.00 | 0.00 | 0.00 | 33 | 1015.6 |
| 20260504130403 | 79 | 274 | 3.0 | 7.0 | 0.00 | 0.00 | 0.00 | 33 | 1015.9 |
| 20260504110403 | 76 | 233 | 5.0 | 10.0 | 0.00 | 0.00 | 0.00 | 37 | 1016.9 |
| 20260504081903 | 68 | 66 | 1.0 | 2.0 | 0.00 | 0.00 | 0.00 | 48 | 1018.6 |
| 20260504081404 | 68 | 262 | 1.0 | 2.0 | 0.00 | 0.00 | 0.00 | 48 | 1018.6 |
| 20260504080404 | 68 | 356 | 0.0 | 2.0 | 0.00 | 0.00 | 0.00 | 50 | 1018.6 |
| 20260504070403 | 63 | 52 | 0.0 | 1.0 | 0.00 | 0.00 | 0.00 | 57 | 1019.0 |
| 20260504050403 | 58 | 70 | 1.0 | 2.0 | 0.00 | 0.00 | 0.00 | 65 | 1018.9 |
| 20260504045403 | 57 | 64 | 0.0 | 1.0 | 0.00 | 0.00 | 0.00 | 65 | 1018.8 |
| 20260504044903 | 57 | 169 | 0.0 | 2.0 | 0.00 | 0.00 | 0.00 | 65 | 1018.6 |
| 20260504044404 | 57 | 138 | 0.0 | 2.0 | 0.00 | 0.00 | 0.00 | 64 | 1018.6 |
| 20260504043903 | 56 | 247 | 1.0 | 1.0 | 0.00 | 0.00 | 0.00 | 64 | 1018.6 |
| 20260504043404 | 57 | 244 | 0.0 | 1.0 | 0.00 | 0.00 | 0.00 | 64 | 1018.3 |
| 20260504042903 | 57 | 59 | 0.0 | 1.0 | 0.00 | 0.00 | 0.00 | 63 | 1018.3 |
| 20260504042404 | 57 | 63 | 0.0 | 1.0 | 0.00 | 0.00 | 0.00 | 62 | 1018.5 |
| 20260504041903 | 56 | 155 | 0.0 | 1.0 | 0.00 | 0.00 | 0.00 | 62 | 1018.5 |
| 20260504041403 | 56 | 62 | 0.0 | 1.0 | 0.00 | 0.00 | 0.00 | 63 | 1018.3 |
| 20260504040903 | 56 | 248 | 0.0 | 1.0 | 0.00 | 0.00 | 0.00 | 64 | 1018.3 |
| 20260504040405 | 56 | 245 | 1.0 | 1.0 | 0.00 | 0.00 | 0.00 | 63 | 1018.3 |
| 20260504035403 | 57 | 72 | 0.0 | 1.0 | 0.00 | 0.00 | 0.00 | 62 | 1018.3 |
| 20260504034404 | 57 | 72 | 0.0 | 1.0 | 0.00 | 0.00 | 0.00 | 62 | 1018.4 |
| 20260504033904 | 58 | 120 | 0.0 | 1.0 | 0.00 | 0.00 | 0.00 | 62 | 1018.3 |
| 20260504033403 | 58 | 233 | 0.0 | 1.0 | 0.00 | 0.00 | 0.00 | 61 | 1018.3 |
| 20260504032906 | 58 | 195 | 0.0 | 1.0 | 0.00 | 0.00 | 0.00 | 60 | 1018.3 |
| 20260504032404 | 58 | 258 | 1.0 | 1.0 | 0.00 | 0.00 | 0.00 | 61 | 1018.3 |
| 20260504031903 | 58 | 42 | 0.0 | 1.0 | 0.00 | 0.00 | 0.00 | 61 | 1018.3 |
| 20260504031404 | 58 | 66 | 0.0 | 1.0 | 0.00 | 0.00 | 0.00 | 60 | 1018.2 |
| 20260504030404 | 58 | 99 | 0.0 | 1.0 | 0.00 | 0.00 | 0.00 | 58 | 1017.9 |
| 20260504025903 | 58 | 187 | 0.0 | 1.0 | 0.00 | 0.00 | 0.00 | 59 | 1017.9 |
| 20260504025404 | 58 | 228 | 0.0 | 1.0 | 0.00 | 0.00 | 0.00 | 60 | 1017.9 |
| 20260504024904 | 58 | 216 | 0.0 | 1.0 | 0.00 | 0.00 | 0.00 | 60 | 1017.9 |
| 20260504024404 | 58 | 180 | 0.0 | 0.0 | 0.00 | 0.00 | 0.00 | 60 | 1017.9 |
| 20260504023904 | 58 | 91 | 0.0 | 0.0 | 0.00 | 0.00 | 0.00 | 60 | 1017.9 |
| 20260504022904 | 58 | 83 | 0.0 | 0.0 | 0.00 | 0.00 | 0.00 | 60 | 1018.1 |
| 20260504022406 | 58 | 83 | 0.0 | 0.0 | 0.00 | 0.00 | 0.00 | 61 | 1018.3 |
| 20260504021904 | 58 | 83 | 0.0 | 0.0 | 0.00 | 0.00 | 0.00 | 61 | 1018.3 |
| 20260504021403 | 58 | 83 | 0.0 | 0.0 | 0.00 | 0.00 | 0.00 | 61 | 1018.2 |
| 20260504020904 | 58 | 93 | 0.0 | 0.0 | 0.00 | 0.00 | 0.00 | 62 | 1018.2 |
| 20260504020403 | 58 | 50 | 0.0 | 0.0 | 0.00 | 0.00 | 0.00 | 62 | 1018.1 |
| 20260504015906 | 58 | 44 | 0.0 | 0.0 | 0.00 | 0.00 | 0.00 | 62 | 1018.1 |
| 20260504015404 | 58 | 44 | 0.0 | 0.0 | 0.00 | 0.00 | 0.00 | 62 | 1018.3 |
| 20260504014904 | 58 | 54 | 0.0 | 0.0 | 0.00 | 0.00 | 0.00 | 60 | 1018.3 |
| 20260504014403 | 58 | 26 | 0.0 | 0.0 | 0.00 | 0.00 | 0.00 | 60 | 1017.9 |
| 20260504013904 | 58 | 41 | 0.0 | 0.0 | 0.00 | 0.00 | 0.00 | 61 | 1018.3 |
| 20260504013403 | 59 | 47 | 0.0 | 0.0 | 0.00 | 0.00 | 0.00 | 61 | 1017.9 |
| 20260504012903 | 59 | 49 | 0.0 | 0.0 | 0.00 | 0.00 | 0.00 | 61 | 1018.3 |
| 20260504012405 | 59 | 49 | 0.0 | 0.0 | 0.00 | 0.00 | 0.00 | 60 | 1017.9 |
| 20260504011903 | 59 | 47 | 0.0 | 1.0 | 0.00 | 0.00 | 0.00 | 60 | 1017.9 |